• In Lithuania
  • List of Countries
  • For 7 days
  • Water Temperature
  • Satellite Maps
  • Weather Map
  • Weather Widgets
  • user-avatar
    Login

    Hourly Weather Kazgulak

    Today, 23 October, Tuesday

    Time Temperature Precipitation Wind Pressure Humidity
    00:00 +15°C° 0 mm 1 mps 749 mmHg 77%
    01:00 +15°C° 0 mm 1 mps 749 mmHg 82%
    02:00 +15°C° 0 mm 1 mps 749 mmHg 84%
    03:00 +14°C° 0 mm 1 mps 748 mmHg 88%
    04:00 +14°C° 0 mm 1 mps 749 mmHg 90%
    05:00 +13°C° 0 mm 2 mps 749 mmHg 91%
    06:00 +13°C° 0 mm 2 mps 749 mmHg 93%
    07:00 +13°C° 0 mm 3 mps 749 mmHg 88%
    08:00 +14°C° 0 mm 4 mps 749 mmHg 83%
    09:00 +17°C° 0 mm 4 mps 749 mmHg 77%
    10:00 +17°C° 0 mm 5 mps 748 mmHg 70%
    11:00 +19°C° 0 mm 5 mps 748 mmHg 63%
    12:00 +20°C° 0 mm 5 mps 748 mmHg 55%
    13:00 +20°C° 0 mm 5 mps 748 mmHg 53%
    14:00 +20°C° 0 mm 5 mps 747 mmHg 51%
    15:00 +19°C° 0 mm 5 mps 747 mmHg 50%
    16:00 +18°C° 0 mm 4 mps 747 mmHg 53%
    17:00 +17°C° 0 mm 3 mps 747 mmHg 57%
    18:00 +16°C° 0 mm 2 mps 747 mmHg 60%
    19:00 +15°C° 0 mm 2 mps 747 mmHg 62%
    20:00 +15°C° 0 mm 2 mps 747 mmHg 63%
    21:00 +15°C° 0 mm 2 mps 746 mmHg 65%
    22:00 +14°C° 0 mm 2 mps 746 mmHg 66%
    23:00 +14°C° 0 mm 2 mps 746 mmHg 67%

    Tomorrow, 24 October, Wednesday

    Time Temperature Precipitation Wind Pressure Humidity
    00:00 +14°C° 0 mm 1 mps 745 mmHg 69%
    01:00 +14°C° 0.1 mm 1 mps 745 mmHg 71%
    02:00 +14°C° 0.1 mm 2 mps 745 mmHg 72%
    03:00 +14°C° 0.1 mm 2 mps 744 mmHg 74%
    04:00 +14°C° 0.5 mm 2 mps 744 mmHg 77%
    05:00 +14°C° 0.5 mm 2 mps 744 mmHg 80%
    06:00 +14°C° 0.5 mm 2 mps 743 mmHg 82%
    07:00 +14°C° 0.2 mm 3 mps 743 mmHg 80%
    08:00 +15°C° 0.2 mm 4 mps 742 mmHg 78%
    09:00 +16°C° 0.2 mm 5 mps 742 mmHg 76%
    10:00 +16°C° 0.2 mm 6 mps 741 mmHg 74%
    11:00 +17°C° 0.2 mm 6 mps 740 mmHg 71%
    12:00 +17°C° 0.2 mm 6 mps 739 mmHg 69%
    13:00 +18°C° 0.1 mm 7 mps 738 mmHg 66%
    14:00 +18°C° 0.1 mm 7 mps 737 mmHg 64%
    15:00 +20°C° 0.1 mm 8 mps 736 mmHg 61%
    16:00 +18°C° 0.1 mm 7 mps 736 mmHg 64%
    17:00 +19°C° 0.1 mm 5 mps 735 mmHg 68%
    18:00 +18°C° 0.1 mm 4 mps 735 mmHg 71%
    19:00 +17°C° 0.3 mm 3 mps 734 mmHg 75%
    20:00 +17°C° 0.3 mm 2 mps 734 mmHg 79%
    21:00 +16°C° 0.3 mm 1 mps 734 mmHg 84%
    22:00 +16°C° 0.4 mm 2 mps 734 mmHg 84%
    23:00 +16°C° 0.4 mm 2 mps 734 mmHg 85%

    Day after tomorrow, 25 October, Thursday

    Time Temperature Precipitation Wind Pressure Humidity
    00:00 +16°C° 0.4 mm 2 mps 734 mmHg 86%
    01:00 +16°C° 0.6 mm 2 mps 733 mmHg 87%
    02:00 +15°C° 0.6 mm 1 mps 733 mmHg 88%
    03:00 +15°C° 0.6 mm 1 mps 732 mmHg 89%
    04:00 +15°C° 0.3 mm 2 mps 732 mmHg 88%
    05:00 +15°C° 0.3 mm 2 mps 732 mmHg 87%
    06:00 +15°C° 0.3 mm 2 mps 732 mmHg 87%
    07:00 +14°C° 1 mm 3 mps 732 mmHg 85%
    08:00 +14°C° 1 mm 4 mps 732 mmHg 84%
    09:00 +14°C° 1 mm 5 mps 732 mmHg 82%
    10:00 +13°C° 0.6 mm 5 mps 733 mmHg 82%
    11:00 +13°C° 0.6 mm 5 mps 733 mmHg 81%
    12:00 +13°C° 0.6 mm 6 mps 733 mmHg 81%
    13:00 +13°C° 0.4 mm 6 mps 734 mmHg 78%
    14:00 +11°C° 0.4 mm 7 mps 735 mmHg 75%
    15:00 +11°C° 0.4 mm 7 mps 735 mmHg 72%
    16:00 +10°C° 0.2 mm 7 mps 736 mmHg 71%
    17:00 +10°C° 0.2 mm 6 mps 737 mmHg 70%
    18:00 +9°C° 0.2 mm 5 mps 738 mmHg 69%
    19:00 +9°C° 0 mm 5 mps 738 mmHg 69%
    20:00 +9°C° 0 mm 5 mps 739 mmHg 68%
    21:00 +9°C° 0 mm 5 mps 739 mmHg 68%
    22:00 +8°C° 0 mm 4 mps 739 mmHg 68%
    23:00 +8°C° 0 mm 4 mps 740 mmHg 68%

    26 October, Friday

    Time Temperature Precipitation Wind Pressure Humidity
    00:00 +9°C° 0 mm 3 mps 740 mmHg 68%
    01:00 +9°C° 0 mm 3 mps 740 mmHg 69%
    02:00 +8°C° 0 mm 4 mps 740 mmHg 71%
    03:00 +8°C° 0 mm 4 mps 741 mmHg 73%
    04:00 +7°C° 0 mm 4 mps 741 mmHg 74%
    05:00 +7°C° 0 mm 4 mps 742 mmHg 76%
    06:00 +8°C° 0 mm 3 mps 742 mmHg 78%
    07:00 +7°C° 0 mm 4 mps 742 mmHg 73%
    08:00 +8°C° 0 mm 5 mps 743 mmHg 69%
    09:00 +8°C° 0 mm 6 mps 743 mmHg 65%
    10:00 +9°C° 0 mm 6 mps 743 mmHg 57%
    11:00 +10°C° 0 mm 6 mps 743 mmHg 50%
    12:00 +11°C° 0 mm 6 mps 743 mmHg 43%
    13:00 +13°C° 0 mm 6 mps 743 mmHg 42%
    14:00 +13°C° 0 mm 5 mps 743 mmHg 41%
    15:00 +14°C° 0 mm 5 mps 742 mmHg 40%
    16:00 +13°C° 0.4 mm 5 mps 742 mmHg 48%
    17:00 +11°C° 0.4 mm 6 mps 742 mmHg 56%
    18:00 +10°C° 0.4 mm 6 mps 742 mmHg 64%
    19:00 +9°C° 1 mm 6 mps 743 mmHg 67%
    20:00 +9°C° 1 mm 6 mps 744 mmHg 70%
    21:00 +9°C° 1 mm 6 mps 745 mmHg 74%
    22:00 +8°C° 0 mm 7 mps 746 mmHg 73%
    23:00 +8°C° 0 mm 7 mps 746 mmHg 72%

    27 October, Saturday

    Time Temperature Precipitation Wind Pressure Humidity
    00:00 +8°C° 0 mm 7 mps 747 mmHg 72%
    01:00 +6°C° 0 mm 7 mps 748 mmHg 72%
    02:00 +6°C° 0 mm 7 mps 748 mmHg 73%
    03:00 +6°C° 0 mm 7 mps 749 mmHg 74%
    04:00 +7°C° 0 mm 6 mps 749 mmHg 75%
    05:00 +5°C° 0 mm 6 mps 750 mmHg 77%
    06:00 +6°C° 0 mm 5 mps 751 mmHg 79%
    07:00 +7°C° 0 mm 6 mps 752 mmHg 74%
    08:00 +8°C° 0 mm 6 mps 752 mmHg 68%
    09:00 +9°C° 0 mm 7 mps 753 mmHg 62%
    10:00 +10°C° 0 mm 6 mps 753 mmHg 58%
    11:00 +11°C° 0 mm 6 mps 753 mmHg 53%
    12:00 +13°C° 0 mm 6 mps 753 mmHg 48%
    13:00 +14°C° 0 mm 5 mps 753 mmHg 48%
    14:00 +14°C° 0 mm 5 mps 752 mmHg 47%
    15:00 +15°C° 0 mm 5 mps 752 mmHg 46%
    16:00 +14°C° 0 mm 4 mps 752 mmHg 51%
    17:00 +13°C° 0 mm 3 mps 752 mmHg 55%
    18:00 +13°C° 0 mm 2 mps 752 mmHg 60%
    19:00 +12°C° 0 mm 3 mps 752 mmHg 61%
    20:00 +12°C° 0 mm 4 mps 752 mmHg 63%
    21:00 +11°C° 0 mm 4 mps 752 mmHg 64%
    22:00 +11°C° 0 mm 4 mps 752 mmHg 66%
    23:00 +11°C° 0 mm 4 mps 753 mmHg 67%

    28 October, Sunday

    Time Temperature Precipitation Wind Pressure Humidity
    00:00 +10°C° 0 mm 4 mps 753 mmHg 69%
    01:00 +10°C° 0 mm 4 mps 753 mmHg 69%
    02:00 +10°C° 0 mm 4 mps 753 mmHg 69%
    03:00 +10°C° 0 mm 4 mps 753 mmHg 70%
    04:00 +10°C° 0 mm 4 mps 753 mmHg 69%
    05:00 +10°C° 0 mm 4 mps 753 mmHg 67%
    06:00 +10°C° 0 mm 4 mps 754 mmHg 66%
    07:00 +11°C° 0 mm 4 mps 754 mmHg 60%
    08:00 +13°C° 0 mm 4 mps 754 mmHg 55%
    09:00 +14°C° 0 mm 4 mps 754 mmHg 49%
    10:00 +17°C° 0 mm 4 mps 754 mmHg 43%
    11:00 +19°C° 0 mm 3 mps 754 mmHg 37%
    12:00 +21°C° 0 mm 3 mps 754 mmHg 31%
    13:00 +21°C° 0 mm 3 mps 754 mmHg 30%
    14:00 +21°C° 0 mm 2 mps 754 mmHg 29%
    15:00 +23°C° 0 mm 2 mps 754 mmHg 28%
    16:00 +20°C° 0 mm 2 mps 754 mmHg 32%
    17:00 +19°C° 0 mm 1 mps 754 mmHg 36%
    18:00 +18°C° 0 mm 1 mps 755 mmHg 40%
    19:00 +16°C° 0 mm 1 mps 755 mmHg 41%
    20:00 +16°C° 0 mm 1 mps 755 mmHg 43%
    21:00 +15°C° 0 mm 1 mps 755 mmHg 44%
    22:00 +15°C° 0 mm 1 mps 755 mmHg 45%
    23:00 +15°C° 0 mm 2 mps 755 mmHg 46%

    29 October, Monday

    Time Temperature Precipitation Wind Pressure Humidity
    00:00 +14°C° 0 mm 2 mps 755 mmHg 47%
    01:00 +14°C° 0 mm 2 mps 755 mmHg 48%
    02:00 +14°C° 0 mm 2 mps 755 mmHg 49%
    03:00 +13°C° 0 mm 2 mps 755 mmHg 50%
    04:00 +13°C° 0 mm 2 mps 755 mmHg 51%
    05:00 +13°C° 0 mm 2 mps 755 mmHg 52%
    06:00 +13°C° 0 mm 2 mps 755 mmHg 52%
    07:00 +14°C° 0 mm 2 mps 755 mmHg 49%
    08:00 +15°C° 0 mm 2 mps 755 mmHg 47%
    09:00 +16°C° 0 mm 3 mps 756 mmHg 44%
    10:00 +18°C° 0 mm 3 mps 755 mmHg 39%
    11:00 +20°C° 0 mm 4 mps 755 mmHg 35%
    12:00 +21°C° 0 mm 4 mps 755 mmHg 31%
    13:00 +21°C° 0 mm 4 mps 755 mmHg 31%
    14:00 +22°C° 0 mm 4 mps 754 mmHg 31%
    15:00 +22°C° 0 mm 4 mps 754 mmHg 30%
    16:00 +20°C° 0 mm 4 mps 754 mmHg 36%
    17:00 +18°C° 0 mm 3 mps 754 mmHg 41%
    18:00 +17°C° 0 mm 3 mps 754 mmHg 47%
    19:00 +16°C° 0 mm 3 mps 753 mmHg 52%
    20:00 +16°C° 0 mm 3 mps 753 mmHg 57%
    21:00 +14°C° 0 mm 3 mps 753 mmHg 61%
    22:00 +13°C° 0 mm 3 mps 753 mmHg 68%
    23:00 +13°C° 0 mm 3 mps 753 mmHg 74%
    Show more